Location: Home
(42.5358°N, 72.7383°W)
Time: 13:25:45
(UTC-05:00)

A-11 Canister half - Pass Details

Date: 06 December 2021
Orbit: 1524 x 1684 km, 47.3° (Epoch: 26 January)

Event Time Altitude Azimuth Distance (km) Brightness Sun altitude
Rises 22:51:28 0° 203° (SSW) 4,891 - -67.4°
Reaches altitude 10° 22:54:55 10° 195° (SSW) 3,919 - -67.8°
Maximum altitude 23:03:48 37° 133° (SE) 2,420 - -68.5°
Drops below altitude 10° 23:12:43 10° 72° (ENE) 3,942 - -69.2°
Sets 23:16:10 0° 64° (ENE) 4,922 - -69.4°
